Location: Berlin
(52.5170°N, 13.3889°E)
Time: 23:13:17
(UTC+02:00)

LES 1 - Pass Details

Date: 16 June 2025
Orbit: 2779 x 2808 km, 32.1° (Epoch: 12 July)

Event Time Altitude Azimuth Distance (km) Brightness Sun altitude
Rises 22:28:37 0° 208° (SSW) 6,564 12.0 -6.6°
Reaches altitude 10° 22:34:14 10° 195° (SSW) 5,546 11.5 -7.1°
Maximum altitude 22:45:04 22° 151° (SSE) 4,579 10.8 -8.0°
Drops below altitude 10° 22:55:53 10° 107° (ESE) 5,561 11.5 -8.9°
Sets 23:01:29 0° 93° (E) 6,587 12.0 -9.3°
